Temp
83 86 83 84 84 84 84 84 84 84 84 83 83 83 84 84 84 84 83 83 83 83 83 83 83 83 83 83 83 83 83 83 83 83 83 83 83 83 83 83 83 89 83
87 88 83 83 84 84 84 84 84 84 84 84 84 84 84 84 84 84 84 83 83 83 83 83 83 83 83 83 83 83 83 82 83 83 84 83 83 83 83 83 83 87 83
87 88 87 83 84 84 84 83 84 84 84 84 84 84 84 84 84 84 84 83 83 83 83 83 83 83 83 83 83 83 82 82 82 83 83 89 88 83 82 83 83 83 83
89 90 90 82 83 84 83 83 83 84 84 84 84 84 84 84 84 84 84 83 83 83 83 83 83 83 82 82 82 82 82 82 82 82 89 89 88 83 83 83 83 82 83
89 91 90 83 83 84 83 83 84 84 84 84 84 84 84 84 84 84 84 83 83 83 83 83 83 83 82 82 82 82 82 82 82 85 87 87 87 85 82 82 83 83 82
89 91 86 83 84 84 83 83 83 84 84 84 84 84 84 84 84 84 83 83 83 83 83 83 83 83 83 83 83 83 83 83 83 89 87 85 87 83 81 82 84 84 82
88 91 89 83 83 83 83 83 83 83 83 84 84 84 83 83 83 83 83 83 83 83 83 83 83 84 84 84 84 83 83 83 88 89 88 88 87 80 81 83 83 83 83
88 90 90 84 83 83 83 83 83 83 83 84 84 84 84 83 83 83 83 83 83 83 83 83 83 84 84 84 84 83 83 83 88 89 89 90 84 80 82 83 83 83 83
89 89 89 88 85 83 84 84 83 83 84 84 84 83 83 83 83 83 83 83 83 84 84 84 84 84 84 84 84 83 83 83 88 88 90 90 82 81 82 82 83 83 83
87 88 88 88 89 88 89 84 83 83 84 84 84 84 84 84 84 84 83 83 83 83 84 84 84 84 83 83 83 84 84 84 86 86 85 87 81 81 82 83 83 82 82
85 87 87 88 87 87 88 87 84 84 84 84 85 84 85 89 89 88 85 82 83 84 84 84 84 84 83 84 82 82 83 86 89 89 88 82 80 81 83 83 83 82 82
83 85 87 87 87 87 88 87 88 89 90 90 89 87 89 88 87 87 85 83 83 84 84 84 83 84 86 86 90 85 88 84 86 88 87 81 80 81 82 82 83 83 83
85 85 86 87 86 88 88 87 88 89 89 88 85 85 87 87 87 88 88 89 88 86 89 88 88 91 89 88 87 87 87 87 90 90 89 81 80 81 82 82 83 83 83
84 85 87 86 84 86 87 87 88 88 87 87 87 85 85 85 85 85 87 87 85 88 86 86 87 87 87 85 85 85 87 88 89 90 87 80 80 81 82 82 82 82 83
82 84 85 84 82 83 83 86 86 86 87 88 86 86 86 85 85 86 86 87 87 88 88 87 86 87 86 85 85 85 87 87 88 88 88 82 80 80 81 82 83 81 83
83 84 86 84 82 83 82 82 85 86 87 86 87 87 85 86 85 86 86 87 87 88 89 89 84 86 87 87 86 85 85 88 87 86 89 88 80 80 81 82 83 82 83
84 86 85 84 84 82 82 83 84 85 88 86 87 86 85 85 84 83 86 87 88 88 87 88 87 87 87 88 86 86 87 87 88 87 88 89 88 79 79 81 81 81 81
86 83 85 86 85 83 83 83 85 85 86 86 87 88 86 85 85 84 86 87 89 87 88 89 89 88 88 88 88 89 88 88 88 88 90 89 90 90 84 79 80 81 81
85 84 83 84 85 84 82 83 84 84 84 86 87 88 86 87 87 85 87 88 87 88 88 88 88 87 87 88 90 90 90 89 89 91 88 87 87 87 90 83 79 79 80
87 85 84 84 83 83 83 82 84 84 85 86 87 88 87 88 87 86 88 87 87 88 88 88 84 88 86 87 89 89 89 91 91 88 87 88 87 86 87 85 87 88 80
87 84 83 82 82 82 81 81 82 82 85 86 87 87 86 87 87 85 88 87 87 85 86 85 85 84 86 88 85 89 90 91 90 89 89 90 88 87 86 86 86 88 88
87 84 83 82 82 82 83 83 85 86 87 88 89 87 86 87 87 87 85 87 87 87 83 84 83 85 86 87 84 84 83 87 90 89 89 87 87 88 87 87 86 85 85
86 84 83 82 83 82 83 84 84 85 85 85 86 87 88 86 87 87 86 86 86 85 88 85 85 82 85 87 84 83 80 81 85 90 88 89 87 90 90 87 86 86 85
88 88 85 84 83 83 83 83 81 84 83 87 88 89 89 87 87 88 86 86 85 89 85 86 87 84 83 83 88 87 84 84 80 80 89 88 88 88 89 90 91 89 86
91 90 88 85 83 84 82 83 83 82 87 88 88 85 85 87 86 87 87 86 86 87 86 84 83 82 85 84 86 85 83 84 83 80 79 86 89 91 92 91 93 93 90
92 91 90 85 81 83 82 82 81 82 83 85 84 86 88 90 90 87 88 86 86 87 85 86 85 83 83 82 83 83 83 83 84 81 80 82 83 88 92 92 91 91 92
MSLP
1013.53 1014.01 1014.57 1014.72 1014.96 1015.11 1015.15 1015.37 1015.54 1015.80 1016.17 1016.46 1016.81 1017.04 1017.18 1017.33 1017.55 1017.75 1017.96 1018.12 1018.24 1018.37 1018.42 1018.44 1018.44 1018.47 1018.44 1018.48 1018.46 1018.45 1018.36 1018.26 1018.19 1018.16 1018.27 1018.40 1018.48 1018.46 1018.52 1018.56 1018.61 1018.18 1018.98
1012.98 1013.85 1014.61 1014.80 1015.06 1015.26 1015.35 1015.60 1015.69 1016.07 1016.45 1016.70 1017.02 1017.20 1017.39 1017.63 1017.89 1018.09 1018.26 1018.35 1018.49 1018.54 1018.53 1018.61 1018.58 1018.54 1018.55 1018.54 1018.45 1018.45 1018.47 1018.46 1018.33 1018.31 1018.18 1018.29 1018.46 1018.52 1018.65 1018.63 1018.72 1018.53 1018.95
1012.95 1013.70 1014.42 1014.88 1015.16 1015.45 1015.70 1015.88 1015.91 1016.25 1016.65 1016.92 1017.22 1017.42 1017.59 1017.84 1018.11 1018.35 1018.53 1018.64 1018.73 1018.70 1018.77 1018.84 1018.78 1018.77 1018.76 1018.77 1018.71 1018.63 1018.65 1018.60 1018.47 1018.46 1018.31 1017.99 1017.95 1018.50 1018.63 1018.69 1018.76 1018.80 1018.89
1012.77 1013.53 1014.19 1015.05 1015.30 1015.62 1015.96 1016.16 1016.24 1016.53 1016.88 1017.09 1017.27 1017.51 1017.80 1018.09 1018.33 1018.53 1018.61 1018.74 1018.82 1018.87 1018.90 1018.90 1018.87 1018.83 1018.83 1018.80 1018.80 1018.80 1018.78 1018.63 1018.55 1018.42 1018.11 1018.10 1018.08 1018.45 1018.52 1018.69 1018.67 1018.93 1018.98
1012.96 1013.51 1014.22 1015.10 1015.40 1015.79 1016.08 1016.31 1016.52 1016.73 1016.98 1017.28 1017.51 1017.76 1017.99 1018.23 1018.49 1018.59 1018.67 1018.76 1018.90 1018.97 1019.04 1018.95 1018.81 1018.76 1018.76 1018.79 1018.80 1018.78 1018.77 1018.64 1018.58 1018.33 1018.18 1018.13 1018.23 1018.40 1018.67 1018.76 1018.74 1018.84 1019.02
1013.15 1013.65 1014.59 1015.12 1015.49 1015.86 1016.26 1016.47 1016.69 1016.86 1017.06 1017.30 1017.60 1017.86 1018.15 1018.38 1018.58 1018.68 1018.73 1018.82 1018.92 1018.99 1019.03 1018.98 1018.89 1018.85 1018.75 1018.66 1018.71 1018.71 1018.65 1018.63 1018.57 1018.00 1018.17 1018.26 1018.17 1018.31 1018.60 1018.63 1018.55 1018.58 1018.91
1013.42 1013.86 1014.68 1015.33 1015.72 1016.06 1016.41 1016.66 1016.88 1017.09 1017.31 1017.52 1017.83 1018.01 1018.23 1018.43 1018.56 1018.63 1018.67 1018.74 1018.81 1018.90 1018.86 1018.83 1018.75 1018.70 1018.55 1018.44 1018.43 1018.47 1018.49 1018.45 1018.05 1017.80 1017.96 1018.06 1017.96 1018.27 1018.44 1018.43 1018.53 1018.76 1018.96
1013.40 1013.95 1014.64 1015.45 1015.90 1016.23 1016.51 1016.74 1016.95 1017.14 1017.38 1017.59 1017.84 1017.99 1018.21 1018.38 1018.57 1018.67 1018.68 1018.76 1018.77 1018.76 1018.67 1018.61 1018.52 1018.42 1018.31 1018.13 1018.09 1018.12 1018.15 1018.20 1017.76 1017.40 1017.70 1017.68 1017.78 1018.12 1018.14 1018.22 1018.36 1018.41 1018.53
1013.60 1013.98 1014.67 1015.31 1015.94 1016.36 1016.63 1016.82 1016.99 1017.17 1017.37 1017.56 1017.77 1017.93 1018.13 1018.30 1018.51 1018.60 1018.65 1018.75 1018.69 1018.60 1018.53 1018.43 1018.30 1018.16 1018.01 1017.83 1017.70 1017.78 1017.79 1017.86 1017.52 1017.22 1017.31 1017.34 1017.64 1017.89 1017.87 1017.91 1018.03 1018.10 1018.24
1014.00 1014.25 1014.62 1015.17 1015.64 1016.01 1016.38 1016.81 1017.03 1017.22 1017.42 1017.63 1017.82 1017.97 1018.16 1018.31 1018.38 1018.42 1018.44 1018.44 1018.45 1018.36 1018.28 1018.17 1018.05 1017.83 1017.75 1017.79 1017.62 1017.51 1017.51 1017.52 1017.46 1017.33 1017.42 1017.29 1017.60 1017.74 1017.70 1017.60 1017.64 1017.81 1017.98
1014.11 1014.49 1014.76 1015.15 1015.63 1016.02 1016.27 1016.71 1017.16 1017.34 1017.48 1017.64 1017.75 1017.90 1018.08 1017.88 1017.91 1018.05 1018.11 1018.37 1018.31 1018.23 1017.98 1017.77 1017.67 1017.60 1017.43 1017.37 1017.48 1017.44 1017.26 1016.97 1016.95 1017.01 1017.10 1017.24 1017.54 1017.59 1017.49 1017.34 1017.33 1017.52 1017.76
1013.73 1014.32 1014.79 1015.08 1015.48 1015.95 1016.25 1016.55 1016.80 1016.97 1017.05 1017.16 1017.36 1017.61 1017.67 1017.77 1017.95 1018.04 1018.12 1018.22 1018.18 1018.06 1017.84 1017.63 1017.44 1017.31 1017.10 1017.04 1016.93 1017.11 1016.83 1016.94 1016.94 1016.74 1016.82 1017.01 1017.28 1017.37 1017.22 1016.98 1016.95 1017.12 1017.27
1013.52 1014.19 1014.58 1015.03 1015.44 1015.67 1015.95 1016.38 1016.52 1016.76 1016.89 1017.13 1017.51 1017.70 1017.73 1017.81 1017.79 1017.79 1017.74 1017.66 1017.70 1017.62 1017.39 1017.25 1017.00 1016.63 1016.66 1016.84 1016.95 1016.92 1016.74 1016.58 1016.34 1016.47 1016.37 1016.83 1016.92 1016.87 1016.84 1016.62 1016.42 1016.53 1016.75
1013.42 1013.90 1014.38 1014.79 1015.39 1015.55 1015.83 1016.13 1016.30 1016.57 1016.80 1016.94 1017.08 1017.51 1017.72 1017.64 1017.62 1017.67 1017.62 1017.66 1017.68 1017.46 1017.36 1017.15 1016.81 1016.59 1016.50 1016.73 1016.77 1016.63 1016.46 1016.32 1016.30 1016.30 1016.43 1016.71 1016.65 1016.63 1016.52 1016.30 1015.85 1015.97 1016.02
1013.42 1013.73 1014.27 1014.86 1015.29 1015.47 1015.89 1015.99 1016.21 1016.39 1016.67 1016.81 1017.11 1017.21 1017.32 1017.27 1017.34 1017.41 1017.41 1017.49 1017.41 1017.21 1016.98 1016.80 1016.61 1016.34 1016.37 1016.40 1016.44 1016.46 1016.22 1016.09 1015.97 1015.98 1015.90 1016.23 1016.32 1016.30 1016.29 1016.07 1015.74 1015.63 1015.59
1013.08 1013.45 1014.08 1014.57 1014.98 1015.34 1015.74 1015.92 1016.16 1016.30 1016.51 1016.73 1016.74 1016.84 1017.14 1017.12 1017.13 1017.10 1017.10 1016.99 1016.91 1016.87 1016.65 1016.48 1016.55 1016.22 1016.10 1016.00 1016.08 1016.05 1015.95 1015.68 1015.65 1015.64 1015.44 1015.39 1015.76 1015.74 1015.84 1015.78 1015.56 1015.27 1015.15
1012.49 1013.07 1013.60 1014.22 1014.64 1015.17 1015.47 1015.75 1015.99 1016.15 1016.32 1016.51 1016.51 1016.70 1016.89 1017.01 1017.02 1017.15 1016.91 1016.78 1016.63 1016.65 1016.66 1016.29 1016.14 1016.13 1016.07 1015.72 1015.70 1015.51 1015.43 1015.18 1014.87 1014.89 1014.85 1014.78 1014.88 1015.40 1015.42 1015.41 1015.27 1015.12 1015.03
1012.25 1012.64 1013.27 1013.82 1014.16 1014.77 1015.11 1015.40 1015.73 1016.05 1016.22 1016.21 1016.22 1016.21 1016.35 1016.53 1016.73 1016.80 1016.60 1016.38 1016.34 1016.49 1016.28 1016.06 1015.91 1015.82 1015.79 1015.58 1015.31 1015.00 1014.83 1014.59 1014.36 1014.22 1014.01 1014.12 1014.06 1014.25 1014.58 1014.82 1014.71 1014.67 1014.69
1011.69 1012.35 1012.95 1013.45 1013.73 1014.28 1014.79 1015.11 1015.54 1015.75 1016.01 1015.88 1015.95 1015.82 1015.85 1016.01 1016.19 1016.47 1016.13 1015.90 1016.07 1015.99 1015.93 1015.87 1015.76 1015.72 1015.51 1015.21 1014.91 1014.61 1014.39 1014.20 1013.96 1013.60 1013.58 1013.68 1013.67 1013.58 1013.43 1013.72 1014.13 1014.30 1014.32
1011.26 1011.89 1012.47 1012.98 1013.43 1014.09 1014.56 1014.98 1015.17 1015.36 1015.33 1015.39 1015.37 1015.32 1015.43 1015.53 1015.76 1015.95 1015.73 1015.65 1015.76 1015.68 1015.59 1015.59 1015.78 1015.56 1015.51 1015.13 1014.75 1014.34 1014.10 1013.66 1013.46 1013.49 1013.41 1013.21 1013.21 1013.30 1013.27 1013.38 1013.45 1013.48 1013.94
1010.67 1011.37 1011.95 1012.45 1012.94 1013.72 1014.09 1014.42 1014.55 1014.42 1014.67 1014.78 1014.72 1014.84 1014.98 1015.04 1015.26 1015.46 1015.26 1015.20 1015.37 1015.48 1015.31 1015.50 1015.59 1015.50 1015.11 1014.95 1014.72 1013.81 1013.43 1013.21 1013.08 1013.10 1013.04 1012.90 1012.91 1012.91 1013.01 1013.09 1013.11 1013.06 1013.09
1009.87 1010.50 1011.24 1011.75 1012.45 1012.91 1013.23 1013.60 1013.73 1013.86 1014.01 1014.14 1014.15 1014.32 1014.56 1014.65 1014.75 1014.93 1015.06 1014.96 1014.93 1015.01 1015.18 1015.28 1015.40 1015.09 1014.83 1014.81 1014.44 1013.99 1012.92 1012.62 1012.75 1012.77 1012.68 1012.61 1012.57 1012.51 1012.59 1012.62 1012.59 1012.70 1012.88
1009.10 1009.66 1010.17 1010.74 1011.47 1012.17 1012.67 1013.31 1013.70 1013.89 1013.94 1013.81 1013.68 1013.77 1013.73 1013.91 1014.00 1014.20 1014.41 1014.59 1014.67 1014.85 1014.64 1014.90 1014.99 1015.02 1014.44 1014.24 1014.68 1014.31 1013.27 1012.34 1012.20 1011.95 1012.10 1012.15 1012.22 1012.13 1012.09 1012.06 1012.09 1012.09 1012.09
1007.73 1008.76 1009.51 1010.10 1010.70 1011.41 1012.09 1012.49 1012.77 1012.72 1012.84 1012.69 1012.95 1013.08 1013.19 1013.38 1013.47 1013.62 1013.80 1013.90 1014.01 1014.00 1014.12 1014.18 1014.31 1014.34 1014.46 1013.89 1013.81 1013.93 1013.91 1013.49 1012.90 1011.59 1011.43 1011.65 1011.75 1011.68 1011.51 1011.43 1011.30 1011.26 1011.47
1007.14 1007.78 1008.46 1009.29 1009.92 1010.47 1011.10 1011.47 1012.00 1012.31 1012.19 1012.39 1012.53 1012.82 1012.93 1012.92 1013.00 1013.05 1013.13 1013.18 1013.33 1013.32 1013.30 1013.52 1013.64 1013.79 1013.70 1013.50 1013.15 1013.21 1013.28 1013.22 1013.12 1012.59 1011.02 1010.66 1010.87 1010.79 1010.79 1010.78 1010.56 1010.34 1010.45
1005.91 1006.77 1007.39 1008.26 1008.91 1009.67 1010.31 1010.84 1011.14 1011.33 1011.57 1011.83 1011.95 1012.06 1012.19 1012.26 1012.28 1012.41 1012.36 1012.54 1012.63 1012.70 1012.77 1012.81 1012.90 1013.04 1013.00 1013.03 1012.97 1012.85 1012.57 1012.32 1011.90 1011.92 1011.36 1010.72 1010.34 1009.88 1009.81 1009.90 1009.89 1009.84 1009.78
Wind_Speed
13 15 14 14 14 14 15 14 16 17 17 17 15 15 15 14 14 12 10 8 7 6 6 5 5 6 6 6 5 6 6 6 5 5 8 6 8 7 8 10 10 10 11
19 18 16 15 14 15 15 15 17 17 17 17 15 14 13 12 12 10 9 7 6 6 5 5 5 5 5 5 4 4 4 4 4 3 5 7 6 7 8 8 6 11 10
21 18 18 16 15 16 15 15 17 18 17 17 15 14 13 12 10 9 8 6 5 4 4 4 3 3 4 4 4 4 4 2 2 2 2 2 5 6 5 7 8 9 10
21 18 18 15 16 16 15 15 16 17 17 16 16 14 12 11 9 8 7 6 4 3 2 2 2 2 2 2 3 3 3 2 1 1 3 2 2 5 5 6 8 9 11
20 18 17 16 16 17 16 15 16 16 16 15 14 13 11 10 9 7 6 4 3 1 0 1 1 1 1 2 2 2 2 3 3 5 2 3 4 3 3 4 6 10 11
19 18 19 17 17 17 16 15 15 15 14 14 13 12 10 9 8 7 6 4 3 2 2 3 4 4 4 5 5 5 5 5 6 5 5 4 6 3 7 8 9 9 11
18 17 18 17 15 15 15 14 14 14 14 13 12 11 10 9 8 7 6 5 4 3 4 5 6 6 7 8 8 7 7 7 9 6 6 6 6 5 5 8 9 10 10
19 17 17 17 16 16 16 16 15 14 14 13 12 11 10 9 8 7 6 5 5 6 7 7 8 9 9 10 10 9 9 10 9 7 7 7 6 9 8 8 10 12 12
17 16 15 15 15 17 16 16 15 14 13 13 12 11 10 9 8 7 6 6 7 9 9 10 11 11 11 12 12 12 12 11 10 7 8 7 8 11 10 10 11 12 12
15 15 14 14 14 14 14 15 15 13 13 12 11 10 9 8 8 8 7 8 9 10 11 12 12 15 12 12 11 11 12 12 10 8 7 7 5 11 11 10 9 13 12
13 14 14 14 12 12 11 12 12 12 11 11 11 10 8 6 6 7 5 9 10 11 13 14 11 11 10 11 7 8 11 5 7 6 5 9 10 12 12 10 7 12 12
17 16 14 14 13 13 10 10 11 9 8 8 7 6 6 6 6 7 8 10 11 12 14 13 13 12 10 5 4 6 4 5 6 6 6 7 11 12 13 11 10 11 13
17 14 15 14 13 13 10 8 6 6 6 6 8 7 6 5 4 4 4 5 5 7 6 8 8 6 7 5 4 5 6 5 4 4 6 3 6 10 13 13 12 13 14
17 17 16 14 13 13 9 8 8 7 7 6 7 7 5 4 5 5 4 5 5 5 7 7 5 7 7 6 6 7 7 6 4 5 6 9 11 11 12 14 13 12 14
16 16 15 14 13 12 11 8 8 8 7 7 6 7 6 6 6 5 5 5 5 6 6 7 6 6 5 6 7 8 9 8 8 6 5 8 13 15 15 16 9 14 11
16 16 15 15 14 13 11 11 8 7 8 8 7 8 8 7 6 6 6 6 6 6 6 6 5 6 5 5 6 7 9 8 8 9 7 7 11 13 14 17 11 5 5
17 16 17 16 15 14 14 11 9 8 8 7 8 9 9 8 8 8 6 7 6 6 7 7 6 5 6 5 7 6 7 8 8 9 8 6 6 12 13 10 8 8 8
15 17 16 14 16 15 14 11 9 8 8 8 8 7 9 9 9 7 7 7 6 6 6 6 7 7 7 6 6 6 5 6 8 9 8 5 5 4 7 7 5 7 10
17 15 16 16 16 16 14 10 10 10 8 8 7 7 9 9 9 8 8 8 7 7 7 7 7 7 8 8 7 7 7 6 7 7 8 6 6 5 4 1 5 7 9
16 16 15 13 15 13 10 9 8 8 9 9 9 9 10 8 9 9 9 10 7 7 7 7 7 7 8 8 8 8 7 7 6 5 7 5 4 5 5 5 4 4 8
16 16 16 15 15 11 10 9 9 10 10 10 10 12 11 10 10 9 8 8 6 7 8 7 7 7 7 6 7 9 7 8 6 5 4 5 5 5 5 5 5 5 5
19 18 17 17 15 14 10 10 7 7 8 8 8 10 11 11 11 9 9 9 7 6 7 7 7 6 6 5 5 8 7 7 2 4 4 4 5 4 5 6 6 7 7
19 19 18 18 17 15 13 9 7 5 5 6 9 9 11 12 12 11 11 10 8 6 7 7 8 9 9 6 6 5 6 4 10 1 6 5 4 4 5 5 7 7 7
22 18 18 17 17 15 15 12 13 11 11 10 9 8 9 10 12 13 13 11 10 7 8 8 8 9 8 10 8 7 9 10 7 9 3 5 7 7 6 5 5 7 8
20 19 18 17 16 15 16 16 13 13 11 10 8 10 10 9 11 12 13 11 10 8 9 10 10 10 9 11 10 9 10 9 10 10 13 9 5 7 7 8 7 7 7
19 19 19 17 17 16 16 17 16 15 13 10 11 9 8 7 7 10 11 10 10 10 10 10 10 11 11 10 9 10 10 9 9 8 11 12 12 10 8 8 8 7 6
Wind_Direction
168 163 169 147 138 139 135 139 143 143 143 141 144 145 144 145 148 146 139 130 121 109 100 95 84 78 72 69 70 80 87 91 88 96 120 127 135 135 123 114 136 125 123
153 161 163 146 139 135 132 137 138 138 140 141 146 148 146 147 147 145 140 136 127 116 108 89 74 73 74 74 69 68 86 98 115 116 136 142 141 150 130 134 139 112 133
151 159 160 149 144 138 138 139 131 135 139 140 142 146 147 148 146 145 141 137 127 117 93 72 66 58 56 56 55 62 69 91 139 127 120 160 140 168 163 156 154 156 152
150 157 158 153 146 140 139 136 129 132 135 142 146 148 148 147 151 152 152 147 136 120 105 59 47 49 39 32 35 27 31 6 341 235 197 164 192 149 176 175 189 177 169
152 156 152 156 148 146 142 138 135 136 140 144 146 147 151 158 162 167 165 163 159 153 163 295 276 288 306 315 323 324 316 301 303 256 209 227 218 163 252 250 198 190 181
152 158 147 155 156 154 149 145 142 143 145 149 153 157 162 168 175 183 183 186 194 235 281 293 295 297 291 288 290 288 283 279 275 263 245 213 249 233 265 248 220 198 191
154 158 154 157 158 159 156 152 148 148 150 155 162 171 178 186 192 198 204 208 227 257 276 277 281 284 283 280 279 276 275 270 270 257 245 237 237 222 235 222 207 206 204
154 158 155 159 161 164 165 160 160 161 163 168 174 184 191 200 206 215 228 241 267 271 274 272 274 274 275 274 274 269 261 254 247 249 247 238 221 222 231 221 214 216 211
158 158 162 165 167 169 171 169 169 172 174 179 185 193 200 210 219 232 251 273 281 283 284 283 280 278 272 272 273 268 259 254 260 259 253 241 190 233 235 242 219 218 218
160 163 167 171 173 177 174 177 177 182 185 189 196 204 213 222 235 240 257 241 274 281 284 282 284 288 276 281 281 290 287 272 255 246 254 260 223 238 244 245 254 213 215
166 169 175 174 176 177 183 180 186 193 199 204 207 217 225 243 251 265 292 293 284 288 286 280 290 292 295 285 307 302 291 262 259 254 246 246 247 244 243 246 237 205 207
172 178 177 182 180 180 184 187 194 199 211 213 218 226 239 252 267 287 286 288 289 290 303 315 317 313 286 306 321 287 296 281 286 254 242 239 245 254 242 223 209 212 212
175 180 184 185 187 187 192 190 196 203 214 218 227 234 250 268 265 268 279 281 286 287 291 301 304 293 290 298 304 294 300 295 273 290 286 259 248 251 257 244 214 210 220
181 187 186 189 191 198 195 198 199 207 212 225 227 231 243 250 256 266 273 288 287 296 302 305 301 296 285 270 278 281 293 299 281 273 260 253 255 252 251 246 237 223 215
184 189 192 188 198 201 203 204 211 216 219 234 237 234 237 247 252 263 271 269 276 284 289 307 296 301 298 285 281 280 285 288 282 263 274 252 254 250 252 268 260 224 229
190 192 190 197 202 202 208 212 214 222 228 233 239 242 239 251 257 259 263 266 269 272 289 304 315 301 303 292 281 277 280 286 275 272 270 264 240 248 249 256 260 260 261
196 195 198 202 201 205 210 214 220 226 229 242 244 248 245 246 252 263 265 268 273 278 285 289 300 294 285 289 283 279 276 281 279 268 265 266 227 220 242 251 253 268 273
199 200 200 201 205 208 212 216 222 225 235 241 246 248 240 241 243 254 263 268 276 280 286 284 295 298 291 295 297 293 279 276 284 285 280 272 257 269 206 220 266 276 281
201 199 202 204 210 210 213 219 225 229 235 243 245 244 243 246 251 253 261 268 271 274 273 280 290 286 294 296 296 301 297 290 290 289 289 291 281 272 272 251 277 285 284
205 206 205 204 212 208 211 217 227 231 235 239 238 243 245 249 252 252 257 262 263 267 265 264 275 281 286 294 302 300 293 285 283 282 287 284 276 269 272 257 268 246 252
209 208 209 206 207 197 200 204 221 226 226 231 236 242 245 246 250 251 255 259 247 254 265 265 274 282 288 288 294 299 301 294 286 280 265 275 272 262 260 248 255 253 229
209 210 207 211 202 202 202 206 218 215 229 236 236 242 242 247 249 247 252 260 258 264 256 255 253 279 280 288 296 305 304 310 173 302 282 266 266 250 242 237 238 229 246
214 210 207 206 204 203 205 205 211 221 236 231 233 240 236 234 235 237 246 254 263 255 269 257 247 250 277 284 269 287 305 298 322 259 275 290 277 267 268 244 239 236 227
213 212 213 208 205 202 194 203 207 215 224 229 236 241 244 237 239 244 248 249 249 254 255 253 248 252 250 274 284 247 262 281 292 301 262 250 270 270 255 250 245 230 230
211 211 210 209 206 203 196 204 207 222 230 238 238 243 241 244 242 242 241 244 250 249 251 254 254 246 250 263 269 275 269 266 260 266 282 286 264 255 261 266 267 262 231
205 209 207 200 203 200 198 202 207 217 222 230 229 232 238 242 240 235 238 241 246 256 255 258 255 249 253 251 262 261 259 262 270 255 267 278 282 288 270 264 258 255 252